Regional Weather Roundup
Issued by NWS Jackson, KY

Home | Current Version | Previous Version | Graphics & Text | Print | Product List | Glossary On
Versions: 1 2 3 4 5 6 7 8 9 10 11 12 13 14 15 16 17 18 19 20 21 22 23 24 25 26 27 28 29 30 31 32 33 34 35 36 37 38 39 40 41 42 43 44 45 46 47 48 49 50
000
ASUS43 KJKL 230410
RWRJKL

EAST KENTUCKY HOURLY WEATHER ROUNDUP
NATIONAL WEATHER SERVICE JACKSON KY
1200 AM EDT WED AUG 23 2017

NOTE: "FAIR" INDICATES FEW OR NO CLOUDS BELOW 12,000 FEET WITH
NO SIGNIFICANT WEATHER AND/OR OBSTRUCTIONS TO VISIBILITY.

* THESE REPORTS ARE NOT UNDER NWS QUALITY CONTROL AND MAY NOT
  REPORT WEATHER SUCH AS PRECIPITATION AND FOG.

KYZ079-080-083-085-087-088-110-112-115-119-120-230500
...EASTERN KENTUCKY...

CITY           SKY/WX    TMP DP  RH WIND       PRES   REMARKS
JACKSON        LGT RAIN  71  69  93 VRB3      29.98F FOG
LONDON         RAIN      71  68  90 NW5       29.99F FOG
SOMERSET*      CLOUDY    70  70 100 CALM      29.99F
MONTICELLO*    LGT RAIN  72  71  97 NE9       30.00F
WILLIAMSBURG*  CLOUDY    70  70 100 CALM      30.00S
MIDDLESBORO*   CLOUDY    73  73 100 CALM      30.00R
HARLAN APT*    CLOUDY    70  68  94 CALM      30.01F VSB 1/2
PIKE CO APT*   LGT RAIN  71  71 100 S3        29.99S
BIG SANDY APT* CLOUDY    72  72 100 CALM      29.97S
MOREHEAD APT*  CLOUDY    72  70  94 CALM      29.98S
$$

KYZ035-036-041-042-044-050-067-078-099-230500
...CENTRAL KENTUCKY...

CITY           SKY/WX    TMP DP  RH WIND       PRES   REMARKS
MT STERLING*   CLOUDY    70  70 100 CALM      29.98S FOG
FLEMING/MASON* CLOUDY    69  69 100 SW3       29.97S
DANVILLE*      CLOUDY    70  68  94 CALM      29.99S
LEXINGTON      MOCLDY    71  68  90 W3        29.97F
FRANKFORT      PTCLDY    71  68  90 CALM      29.96S
LOUISVILLE     MOCLDY    73  70  90 W7        29.96S
LEBANON*         N/A     70  68  94 CALM      29.99R
GLASGOW*       CLOUDY   N/A N/A N/A W3        29.99S HAZE
BOWLING GREEN  PTCLDY    73  73 100 W5        30.00R
$$

KYZ091>093-OHZ055-061-077-WVZ005-015-034-035-042-230500
...SOUTHERN OHIO/WEST VIRGINIA...

CITY           SKY/WX    TMP DP  RH WIND       PRES   REMARKS
COVINGTON      CLOUDY    71  71 100 W8        29.96R
COLUMBUS       CLOUDY    73  63  70 NW14      29.92R
DAYTON         PTCLDY    67  63  87 NW8       29.97R
WILMINGTON     CLOUDY    71  66  84 NW8       29.95R
HUNTINGTON     CLOUDY    72  70  93 SW3       29.93S
CHARLESTON     LGT RAIN  72  69  90 SW5       29.94S
PINEVILLE*     LGT RAIN  71  70  96 MISG      30.04R
BECKLEY        MOCLDY    69  67  93 NW5       30.02S
BLUEFIELD      CLOUDY    69  62  78 SW3       30.04F
LOGAN CO APT*  CLOUDY    72  72 100 CALM      29.98F FOG
$$

VAZ002-007-008-TNZ017-027-036-066-071-230500
...SOUTHWEST VIRGINIA/EAST TENNESSEE...

CITY           SKY/WX    TMP DP  RH WIND       PRES   REMARKS
WISE*          PTCLDY    72  72 100 CALM      30.06S
JONESVILLE*    CLOUDY    75  72  88 CALM      30.00S THUNDER
ABINGDON*      CLOUDY    74  67  78 CALM      30.02S
BRISTOL        CLOUDY    72  67  84 CALM      29.99S
MORRISTOWN*    PTCLDY    79  68  69 W7        29.97F
SEVIERVILLE*   CLEAR     73  63  68 CALM      29.96F
KNOXVILLE      MOCLDY    78  68  71 SW7       29.96F
LAFOLLETTE*    PTCLDY    73  72  94 CALM      30.00F
OAK RIDGE      MOCLDY    78  69  73 CALM      29.97F
CROSSVILLE     CLOUDY    75  68  78 W9        30.04R
NASHVILLE      CLOUDY    73  71  93 W6        30.01R
$$

...KEY TO REMARKS...
VSB - VISIBILITY IN MILES
WCI - WIND CHILL INDEX
HX  - HEAT INDEX

$$



USA.gov is the U.S. government's official web portal to all federal, state and local government web resources and services.